Date String (YYYY-MM-DD hh:mm:ss) UTC,Instrument flags,Ambient pressure (hPa),Sample flow (lpm),Bypass flow (lpm),Sample temperature (°C),Ambient temperature (°C),ASC tube jacket temperature (°C),LED temperature (°C),Box temperature (°C),Sample RH (%),Span deviation,Mass concentration (μg/m³),Mass concentration (μg/m³),Mass concentration (μg/m³)
DateTimeUTC,F1_M11,P_M11,Q1_M11,Q2_M11,T1_M11,T2_M11,T3_M11,T4_M11,T5_M11,U1_M11,ZSPAN_M11,X0_M11,X2_M11,X1_M11
2023-05-21 11:00:00,,0833.8,5.00,0.00,27.7,25.9,00.0,36.0,29.3,18.4,0003.0,0023.52,0017.97,0017.13
2023-05-21 11:01:00,,0833.8,5.01,0.00,27.7,25.9,00.0,36.0,29.3,18.9,0003.0,0023.45,0017.94,0017.10
2023-05-21 11:02:00,,0833.8,5.01,0.00,27.6,25.9,00.0,36.0,29.3,18.3,0003.0,0023.34,0017.89,0017.09
2023-05-21 11:03:00,,0833.8,5.01,0.00,27.6,25.9,00.0,36.0,29.3,18.3,0003.2,0023.34,0017.89,0017.08
2023-05-21 11:04:00,,0833.9,4.98,0.00,27.6,25.9,00.0,36.0,29.3,18.5,0003.2,0023.39,0017.89,0017.08
2023-05-21 11:05:00,,0833.9,5.00,0.00,27.6,25.9,00.0,36.0,29.3,18.1,0003.3,0023.40,0017.88,0017.09
2023-05-21 11:06:00,,0833.8,5.01,0.00,27.6,25.9,00.0,36.0,29.3,18.3,0003.4,0023.48,0017.87,0017.07
2023-05-21 11:07:00,,0833.9,5.01,0.00,27.6,25.9,00.0,36.0,29.3,18.4,0003.5,0023.48,0017.85,0017.04
2023-05-21 11:08:00,,0833.9,5.01,0.00,27.6,25.9,00.0,36.0,29.3,17.9,0003.6,0023.39,0017.86,0017.06
2023-05-21 11:09:00,,0833.9,5.00,0.00,27.6,25.9,00.0,36.0,29.3,17.8,0003.6,0023.08,0017.88,0017.07
2023-05-21 11:10:00,,0833.9,4.99,0.00,27.6,25.9,00.0,36.0,29.3,17.6,0003.6,0023.11,0017.84,0017.03
2023-05-21 11:11:00,,0833.8,4.99,0.00,27.6,25.9,00.0,36.0,29.3,17.7,0003.6,0023.06,0017.81,0016.99
2023-05-21 11:12:00,,0833.9,5.00,0.00,27.6,25.9,00.0,36.0,29.3,17.6,0003.5,0023.20,0017.84,0017.00
2023-05-21 11:13:00,,0833.9,5.01,0.00,27.6,25.9,00.0,36.0,29.3,17.6,0003.5,0023.53,0017.86,0016.98
2023-05-21 11:14:00,,0833.8,5.00,0.00,27.6,25.9,00.0,36.0,29.3,17.9,0003.4,0023.43,0017.83,0016.97
2023-05-21 11:15:00,,0833.9,4.99,0.00,27.6,25.9,00.0,36.0,29.3,17.7,0003.3,0023.35,0017.82,0016.97
2023-05-21 11:16:00,,0833.9,4.99,0.00,27.6,25.9,00.0,36.0,29.3,17.5,0003.3,0023.28,0017.80,0016.94
2023-05-21 11:17:00,,0833.9,4.99,0.00,27.6,26.0,00.0,36.0,29.3,17.5,0003.3,0023.23,0017.80,0016.96
2023-05-21 11:18:00,,0833.9,4.99,0.00,27.6,26.0,00.0,36.0,29.3,17.5,0003.3,0023.14,0017.78,0016.97
2023-05-21 11:19:00,,0833.9,5.02,0.00,27.7,26.0,00.0,36.0,29.3,17.5,0003.1,0023.05,0017.74,0016.95
2023-05-21 11:20:00,,0833.9,5.01,0.00,27.7,26.0,00.0,36.0,29.3,17.6,0003.0,0023.24,0017.77,0016.93
2023-05-21 11:21:00,,0833.9,5.01,0.00,27.7,26.0,00.0,36.0,29.3,17.7,0002.9,0023.17,0017.79,0016.95
2023-05-21 11:22:00,,0833.9,4.98,0.00,27.7,26.0,00.0,36.0,29.3,17.6,0002.9,0022.98,0017.77,0016.97
2023-05-21 11:23:00,,0833.9,4.99,0.00,27.7,26.0,00.0,36.0,29.3,17.4,0002.9,0022.91,0017.73,0016.93
2023-05-21 11:24:00,,0833.9,5.00,0.00,27.7,26.0,00.0,36.0,29.3,17.3,0003.0,0022.63,0017.71,0016.94
2023-05-21 11:25:00,,0833.9,5.00,0.00,27.7,26.0,00.0,36.0,29.3,17.2,0003.0,0023.49,0017.69,0016.92
2023-05-21 11:26:00,,0833.9,5.00,0.00,27.7,26.0,00.0,36.0,29.3,17.0,0003.0,0023.81,0017.65,0016.88
2023-05-21 11:27:00,,0833.9,5.01,0.00,27.7,26.0,00.0,36.0,29.3,17.2,0003.1,0023.87,0017.63,0016.86
2023-05-21 11:28:00,,0833.9,5.00,0.00,27.7,26.0,00.0,36.0,29.3,17.2,0003.1,0023.83,0017.58,0016.81
2023-05-21 11:29:00,,0833.9,5.00,0.00,27.7,26.0,00.0,36.0,29.3,16.9,0003.1,0023.88,0017.55,0016.74
2023-05-21 11:30:00,,0833.9,5.01,0.00,27.7,26.0,00.0,36.0,29.3,16.8,0003.1,0023.96,0017.56,0016.72
2023-05-21 11:31:00,,0833.8,5.00,0.00,27.7,26.0,00.0,36.0,29.3,16.7,0003.0,0024.28,0017.48,0016.64
2023-05-21 11:32:00,,0833.9,5.00,0.00,27.7,26.0,00.0,36.0,29.3,16.6,0003.1,0024.57,0017.39,0016.56
2023-05-21 11:33:00,,0833.9,5.00,0.00,27.7,26.0,00.0,36.0,29.3,16.3,0003.1,0024.56,0017.35,0016.49
2023-05-21 11:34:00,,0833.9,5.00,0.00,27.7,26.0,00.0,36.0,29.3,16.1,0003.2,0024.50,0017.29,0016.42
2023-05-21 11:35:00,,0833.9,5.01,0.00,27.7,26.1,00.0,36.0,29.3,16.3,0003.3,0025.06,0017.17,0016.32
2023-05-21 11:36:00,,0833.9,5.00,0.00,27.7,26.1,00.0,36.0,29.4,16.1,0003.3,0024.31,0017.08,0016.25
2023-05-21 11:37:00,,0833.9,5.00,0.00,27.7,26.1,00.0,36.0,29.4,16.1,0003.3,0023.70,0017.03,0016.17
2023-05-21 11:38:00,,0834.0,5.00,0.00,27.7,26.1,00.0,36.0,29.4,16.0,0003.4,0023.52,0016.93,0016.09
2023-05-21 11:39:00,,0834.0,5.00,0.00,27.7,26.1,00.0,36.0,29.4,15.9,0003.4,0023.34,0016.81,0016.00
2023-05-21 11:40:00,,0834.0,4.99,0.00,27.7,26.1,00.0,36.0,29.4,16.0,0003.6,0023.29,0016.72,0015.91
2023-05-21 11:41:00,,0834.0,5.01,0.00,27.7,26.1,00.0,36.0,29.4,16.2,0003.6,0023.39,0016.59,0015.81
2023-05-21 11:42:00,,0834.0,5.01,0.00,27.7,26.1,00.0,36.0,29.4,16.4,0003.6,0023.17,0016.53,0015.76
2023-05-21 11:43:00,,0833.9,5.01,0.00,27.7,26.1,00.0,36.0,29.4,16.4,0003.7,0022.82,0016.51,0015.72
2023-05-21 11:44:00,,0834.0,4.98,0.00,27.7,26.1,00.0,36.0,29.4,16.5,0003.7,0022.80,0016.45,0015.68
2023-05-21 11:45:00,,0834.0,5.00,0.00,27.7,26.1,00.0,36.0,29.4,16.7,0003.5,0022.93,0016.46,0015.69
2023-05-21 11:46:00,,0833.9,5.01,0.00,27.7,26.1,00.0,36.0,29.4,17.0,0003.4,0022.17,0016.51,0015.73
2023-05-21 11:47:00,,0834.0,5.00,0.00,27.7,26.1,00.0,36.0,29.4,17.1,0003.4,0022.39,0016.60,0015.79
2023-05-21 11:48:00,,0834.0,5.01,0.00,27.7,26.1,00.0,36.0,29.4,17.5,0003.4,0022.52,0016.70,0015.89
2023-05-21 11:49:00,,0834.0,5.00,0.00,27.8,26.1,00.0,36.1,29.4,17.5,0003.3,0022.66,0016.83,0016.00
2023-05-21 11:50:00,,0833.9,5.00,0.00,27.8,26.1,00.0,36.1,29.4,17.6,0003.3,0022.76,0016.97,0016.11
2023-05-21 11:51:00,,0834.0,5.00,0.00,27.8,26.1,00.0,36.1,29.4,17.5,0003.1,0022.83,0017.07,0016.23
2023-05-21 11:52:00,,0834.0,5.00,0.00,27.8,26.1,00.0,36.1,29.4,17.1,0003.0,0022.71,0017.16,0016.29
2023-05-21 11:53:00,,0834.0,5.00,0.00,27.8,26.1,00.0,36.1,29.4,16.7,0003.0,0022.35,0017.18,0016.33
2023-05-21 11:54:00,,0834.0,5.00,0.00,27.8,26.1,00.0,36.1,29.4,16.7,0002.8,0022.66,0017.19,0016.35
2023-05-21 11:55:00,,0834.0,5.00,0.00,27.8,26.1,00.0,36.1,29.4,16.7,0002.8,0022.68,0017.20,0016.39
2023-05-21 11:56:00,,0834.0,5.00,0.00,27.8,26.1,00.0,36.1,29.4,16.8,0002.9,0022.44,0017.20,0016.41
2023-05-21 11:57:00,,0834.0,5.00,0.00,27.8,26.1,00.0,36.1,29.4,16.7,0003.0,0022.44,0017.23,0016.42
2023-05-21 11:58:00,,0834.0,5.00,0.00,27.8,26.1,00.0,36.1,29.4,16.6,0003.1,0022.41,0017.20,0016.40
2023-05-21 11:59:00,,0834.0,5.00,0.00,27.8,26.1,00.0,36.1,29.4,16.3,0003.2,0022.63,0017.11,0016.32
